Tracking 18957 objects as of 23-Jan-2018
HD Live streaming from Space Station
objects crossing your sky now

FENGYUN 1C DEB

Track FENGYUN 1C DEB now!
10-day predictions


NORAD ID: 31260
Int'l Code: 1999-025BMS
Perigee: 775.9 km
Apogee: 850.3 km
Inclination: 98.9 °
Period: 101.0 minutes
Semi major axis: 7184 km
RCS: 0.0022 m2 (small)
Launch date: May 10, 1999
Source: People's Republic of China (PRC)
Launch site: Taiyaun Space Center, China (TSC)

Note: This is SATELLITE DEBRIS
aabbcc
Your satellite tracking list
Your tracking list is empty




NASA's NSSDC Master Catalog

Two Line Element Set (TLE):
1 31260U 99025BMS 18022.60643699 +.00000439 +00000-0 +20161-3 0  9992
2 31260 098.9369 146.2922 0051755 354.7179 062.2032 14.25756711560547
Source of the keplerian elements: AFSPC